Weather History for Twentynine Palms, CA

Change the Weather History Date:

Thursday, October 2, 2014

  Actual Average Record
Temperature  
Mean Temperature 72 °F -  
Max Temperature 86 °F 87 °F 102 °F (2012)
Min Temperature 57 °F 60 °F 52 °F (2002)
Cooling Degree Days 6    
Growing Degree Days 22 (Base 50)    
Moisture  
Dew Point 20 °F    
Average Humidity 15    
Maximum Humidity 27    
Minimum Humidity 7    
Precipitation  
Precipitation 0.00 in - - ()
Sea Level Pressure  
Sea Level Pressure 30.06 in    
Wind  
Wind Speed 4 mph (WNW)    
Max Wind Speed 12 mph    
Max Gust Speed -    
Visibility 10 miles    
Events      
Averages and records for this station are not official NWS values.
T = Trace of Precipitation, MM = Missing Value Source: NWS Daily Summary

Daily Weather History Graph

Daily Weather History Graph

Search for Another Location

Airport:

Trip Planner

Search our weather history database for the weather conditions in past years. The results will help you decide how hot, cold, wet, or windy it might be!

Date:

Astronomy

Oct. 02, 2014 Rise Set
Actual Time 6:40 AM PDT 6:27 PM PDT
Civil Twilight 6:14 AM PDT 6:52 PM PDT
Nautical Twilight 5:45 AM PDT 7:21 PM PDT
Astronomical Twilight 5:16 AM PDT 7:50 PM PDT
Moon 2:23 PM PDT (10/2) 12:15 AM PDT (10/2)
Length of Visible Light 12h 37m
Length of Day
11h 47m
First Quarter, 61% of the Moon is Illuminated
Oct 2
First Quarter
Oct 8
Full
Oct 15
Last Quarter
Oct 23
New
Oct 30
First Quarter

Hourly Weather History & Observations

Time (PDT) Temp. Dew Point Humidity Pressure Visibility Wind Dir Wind Speed Gust Speed Precip Events Conditions
12:56 AM 72.0 °F 23.0 °F 16% 29.97 in 10.0 mi Calm Calm - N/A   Clear
1:56 AM 66.9 °F 24.1 °F 20% 29.99 in 10.0 mi West 3.5 mph - N/A   Clear
2:56 AM 64.0 °F 23.0 °F 21% 30.00 in 10.0 mi WSW 9.2 mph - N/A   Clear
3:56 AM 64.0 °F 23.0 °F 21% 30.01 in 10.0 mi Calm Calm - N/A   Clear
4:56 AM 57.9 °F 24.1 °F 27% 30.04 in 10.0 mi SSW 3.5 mph - N/A   Clear
5:56 AM 57.0 °F 23.0 °F 27% 30.06 in 10.0 mi SW 6.9 mph - N/A   Clear
6:56 AM 60.1 °F 21.0 °F 22% 30.08 in 10.0 mi NNW 5.8 mph - N/A   Clear
7:56 AM 64.0 °F 19.9 °F 18% 30.10 in 10.0 mi West 5.8 mph - N/A   Clear
8:56 AM 70.0 °F 23.0 °F 17% 30.11 in 10.0 mi WNW 4.6 mph - N/A   Clear
9:56 AM 73.0 °F 25.0 °F 17% 30.12 in 10.0 mi WNW 4.6 mph - N/A   Clear
10:56 AM 78.1 °F 24.1 °F 14% 30.11 in 10.0 mi North 8.1 mph - N/A   Clear
11:56 AM 80.1 °F 23.0 °F 12% 30.10 in 10.0 mi Calm Calm - N/A   Clear
12:56 PM 82.0 °F 21.0 °F 10% 30.08 in 10.0 mi North 9.2 mph - N/A   Clear
1:56 PM 84.0 °F 19.0 °F 9% 30.05 in 10.0 mi Variable 3.5 mph - N/A   Clear
2:56 PM 84.9 °F 18.0 °F 8% 30.04 in 10.0 mi NNE 9.2 mph - N/A   Clear
3:56 PM 86.0 °F 16.0 °F 7% 30.03 in 10.0 mi Calm Calm - N/A   Clear
4:56 PM 84.9 °F 15.1 °F 7% 30.03 in 10.0 mi NE 5.8 mph - N/A   Clear
5:56 PM 82.9 °F 16.0 °F 8% 30.04 in 10.0 mi North 6.9 mph - N/A   Clear
6:56 PM 78.1 °F 16.0 °F 10% 30.05 in 9.0 mi NNW 5.8 mph - N/A   Clear
7:56 PM 73.9 °F 18.0 °F 12% 30.07 in 10.0 mi WNW 6.9 mph - N/A   Clear
8:56 PM 72.0 °F 17.1 °F 12% 30.08 in 9.0 mi West 11.5 mph - N/A   Clear
9:56 PM 70.0 °F 17.1 °F 13% 30.09 in 10.0 mi WNW 5.8 mph - N/A   Clear
10:56 PM 66.9 °F 15.1 °F 14% 30.09 in 10.0 mi West 5.8 mph - N/A   Clear
11:56 PM 63.0 °F 14.0 °F 15% 30.09 in 10.0 mi WNW 5.8 mph - N/A   Clear